CAPE
60 14 5 34 31 21 26 52 24 0 0 0 0 0 21 130 68 0 172 303 315 529 1043 1479 1683 1847 1735 1699 1605 1599 1611 1366 1698 2211 2173 2177 2145 2103 1976 2015 1979 1673 1734 1373 1530 1391 1228 1290 1538
0 16 58 87 30 21 29 79 0 0 0 0 33 131 134 151 223 181 257 437 562 693 1138 1362 1524 1773 1729 1828 1797 1940 1798 1695 2114 2201 2064 1794 1947 1969 2104 1951 1762 1816 1715 1633 1481 1347 1200 928 1135
2 8 0 0 12 18 14 58 0 6 0 0 143 213 206 164 163 158 373 580 737 1009 1307 1505 1712 1573 1497 1606 1813 1875 1941 1968 2159 2122 2204 1998 2213 2371 2269 1824 1931 1848 1669 1533 1369 1214 1205 1308 1222
1 13 0 1 18 96 57 27 36 0 0 81 149 153 177 127 167 313 560 693 722 1085 1370 1304 1403 1224 1306 1301 1298 1575 2017 1780 2058 2043 2189 2136 2307 2127 2191 2196 2011 1796 1641 1491 1240 1293 1300 1239 1239
5 27 1 27 52 67 24 33 44 13 14 96 103 74 93 208 263 431 537 698 821 865 936 1550 1663 1661 1674 1738 1290 1309 1424 2026 1820 2024 2220 2105 1790 1643 1902 2081 1775 1721 1778 1637 1649 1685 1438 1349 1436
82 17 8 22 63 55 23 35 45 34 42 5 0 0 115 265 169 334 437 585 596 627 1087 1517 1388 1651 1611 1581 1517 1439 1651 1670 2009 1950 2153 2365 2121 2152 1865 2177 1961 1667 1715 1619 1588 1526 1221 976 1358
20 31 17 24 59 18 0 32 32 25 4 0 0 0 113 142 138 212 326 458 726 764 1042 1043 1191 1519 1485 1479 1240 1667 1444 1879 1778 1996 2235 2334 2132 2255 2322 2163 2074 1846 1666 1504 1465 1463 1473 1087 1470
12 0 17 36 44 20 19 34 6 23 4 0 0 0 8 116 110 164 266 621 675 774 893 1054 1206 1243 1238 1410 1563 1436 1518 1672 1700 1961 2067 1996 2104 2175 2115 2067 1974 1841 1702 1567 1470 1343 1191 1224 1430
28 17 35 34 43 35 56 30 49 8 0 0 0 0 42 177 159 41 119 449 536 757 774 1017 1084 1097 1293 1259 1484 1534 1585 1557 1836 1981 2055 1777 1888 1987 1955 2190 1979 1802 1627 1565 1272 1102 915 951 1021
79 0 21 29 6 18 124 42 20 5 0 0 0 0 101 135 65 0 87 187 393 581 700 913 869 1005 1110 1384 1358 1332 1390 1473 1428 1573 1474 1471 1598 1678 1941 2027 1971 1797 1539 1266 1021 844 857 686 480
3 0 11 34 73 23 131 67 4 0 0 0 0 0 58 74 112 55 129 104 211 485 667 730 768 1013 1117 1106 1047 984 794 993 1136 1047 1106 1236 1149 1365 1347 1330 1243 1100 1110 787 839 663 648 735 996
0 0 0 0 192 9 116 39 0 1 12 0 3 2 69 104 162 109 94 86 149 376 585 543 683 798 949 827 717 590 590 677 757 802 876 896 791 987 1041 898 774 844 847 619 784 543 575 522 687
0 0 52 261 156 29 88 19 6 0 24 11 71 84 95 115 140 67 95 88 137 232 374 410 492 519 616 447 481 479 574 607 631 671 628 595 597 610 651 632 807 649 503 516 613 751 419 78 69
0 8 311 301 72 151 52 15 23 21 27 62 86 46 85 124 121 112 118 129 174 279 297 327 337 260 241 307 497 526 645 710 669 659 732 584 392 358 529 733 757 708 851 459 537 758 470 155 148
212 51 456 456 268 123 71 6 9 46 43 97 79 83 85 144 149 117 102 173 232 336 344 311 335 111 221 322 403 399 576 638 670 504 439 329 499 543 406 560 719 772 551 680 940 231 495 480 238
191 152 156 336 238 143 56 80 47 53 51 96 101 117 96 145 138 118 156 232 285 345 352 345 281 31 50 138 261 312 476 509 593 732 686 430 642 665 550 728 750 874 769 641 514 663 584 574 581
3 28 88 183 213 115 57 50 4 50 26 71 82 128 122 38 91 139 181 242 312 361 341 348 212 5 0 47 175 162 334 398 512 707 715 751 635 691 1017 856 874 770 916 825 572 790 943 553 326
1 0 0 1 109 146 79 57 23 29 26 62 40 129 120 60 120 193 214 241 307 327 270 244 161 23 0 2 8 14 194 268 362 700 651 704 673 885 936 821 861 819 741 540 756 1049 815 659 498
0 0 0 213 153 132 60 58 0 13 28 9 32 33 97 109 113 193 240 280 320 287 252 186 77 2 0 27 0 0 198 200 351 576 667 755 980 840 952 696 898 735 787 890 1014 1037 730 543 363
0 0 27 225 225 124 80 68 79 88 39 5 30 2 41 79 131 171 221 278 277 251 135 109 40 9 109 96 0 0 149 129 374 464 670 727 753 682 840 804 621 690 794 779 943 1106 737 981 832
0 0 0 93 224 170 110 29 45 72 43 17 38 43 60 125 147 206 180 236 247 231 107 129 180 181 188 241 47 144 249 283 450 448 580 759 863 666 594 705 547 957 793 675 968 1196 1179 1111 1049
0 0 0 0 0 0 63 0 0 85 35 52 14 34 42 97 145 181 169 206 183 179 143 140 178 202 199 405 260 249 284 352 428 408 553 657 834 813 536 734 611 999 913 704 1132 1236 1316 1420 1194
0 0 0 0 0 5 0 0 0 79 93 44 12 30 37 71 66 139 172 189 171 162 166 157 177 166 294 509 374 423 400 382 394 442 543 687 745 789 896 902 665 956 841 721 1183 885 1168 1461 1338
87 21 26 14 2 0 0 0 0 3 40 51 17 7 6 84 13 57 135 101 108 80 165 229 188 198 307 476 415 342 276 297 400 388 527 735 688 682 653 855 678 771 703 704 1159 955 887 1149 1081
4 0 0 11 10 2 0 0 0 1 22 55 17 0 2 72 31 22 32 103 85 108 153 185 209 219 246 415 385 378 275 359 412 413 493 542 662 696 568 848 786 794 751 530 1215 1013 816 957 745
0 0 0 0 0 0 29 0 0 1 14 49 32 1 5 76 57 31 29 56 76 85 167 201 218 209 331 383 521 420 255 226 303 423 588 576 496 611 788 769 764 791 692 789 958 1109 927 968 870
0 0 0 0 0 0 17 48 46 7 26 84 50 4 5 38 63 57 55 107 80 97 174 221 213 204 336 462 555 423 133 125 244 386 525 597 591 667 691 845 873 873 909 739 740 982 1051 951 879
0 0 0 0 0 0 4 33 20 34 17 97 97 61 22 41 118 108 53 92 109 97 139 260 245 206 255 412 519 431 285 38 73 156 364 577 654 588 628 670 789 956 951 893 821 764 849 792 819
0 0 0 0 0 0 0 0 63 72 30 18 55 69 77 97 111 55 55 52 99 130 126 256 305 219 265 412 487 516 496 409 265 116 161 335 491 558 535 485 568 774 741 716 787 883 913 846 782
0 0 0 0 0 0 0 0 9 79 10 20 2 27 3 24 60 156 126 97 41 70 160 194 129 139 140 220 358 304 332 370 531 454 223 109 256 344 462 432 457 623 789 759 764 797 990 920 865
CIN
-32 -94 -120 -81 -77 -78 -35 -39 -79 -0 -0 -0 -0 -0 -70 -112 -78 -0 -100 -100 -92 -74 -10 -0 -1 -0 -0 -0 -5 -0 -3 -11 -4 -0 -0 -0 -0 -0 -0 -0 -0 -1 -0 -0 -0 -0 -0 -0 -0
-0 -51 -32 -33 -54 -17 -28 -43 -0 -0 -0 -0 -50 -91 -71 -83 -87 -93 -72 -58 -58 -64 -8 -2 -1 -0 -0 -0 -1 -0 -0 -2 -0 -1 -1 -4 -1 -0 -0 -0 -2 -0 -0 -0 -0 -0 -1 -10 -2
-118 -25 -7 -5 -69 -33 -40 -43 -0 -87 -0 -0 -109 -97 -95 -91 -105 -107 -63 -45 -46 -28 -3 -1 -0 -0 -0 -0 -0 -0 -0 -0 -0 -0 -0 -0 -0 -0 -0 -0 -2 -0 -0 -0 -2 -6 -5 -3 -5
-15 -74 -61 -21 -37 -62 -62 -68 -97 -0 -0 -106 -111 -121 -128 -118 -106 -88 -31 -31 -45 -7 -1 -1 -0 -2 -0 -1 -3 -0 -0 -0 -0 -1 -0 -0 -0 -0 -0 -0 -0 -0 -1 -6 -12 -6 -9 -19 -19
-6 -29 -43 -44 -44 -70 -97 -84 -72 -111 -120 -88 -116 -156 -162 -75 -97 -71 -51 -27 -38 -17 -12 -0 -0 -0 -0 -0 -1 -2 -1 -0 -0 -0 -0 -1 -8 -7 -1 -0 -0 -0 -0 -4 -1 -3 -12 -21 -11
-5 -44 -29 -18 -36 -52 -79 -81 -99 -99 -102 -69 -0 -0 -105 -57 -128 -79 -70 -34 -37 -43 -3 -0 -1 -0 -0 -0 -0 -2 -0 -0 -0 -0 -0 -0 -3 -1 -2 -0 -0 -0 -0 -3 -6 -11 -17 -26 -8
-32 -20 -20 -22 -19 -37 -0 -70 -76 -94 -54 -0 -0 -0 -103 -87 -94 -103 -69 -37 -9 -10 -6 -8 -3 -0 -0 -0 -3 -0 -0 -0 -0 -0 -0 -0 -0 -0 -1 -0 -0 -0 -2 -6 -6 -12 -16 -23 -11
-128 -13 -9 -6 -20 -29 -44 -45 -84 -69 -53 -0 -0 -0 -191 -141 -93 -97 -63 -18 -9 -5 -9 -5 -2 -3 -3 -1 -0 -0 -2 -0 -0 -0 -0 -0 -0 -1 -1 -1 -0 -0 -4 -9 -13 -17 -32 -34 -17
-108 -81 -16 -3 -22 -67 -70 -53 -43 -76 -0 -0 -0 -0 -195 -123 -86 -161 -91 -15 -14 -2 -4 -3 -4 -8 -4 -4 -0 -0 -0 -1 -0 -0 -0 -7 -5 -5 -3 -0 -0 -0 -8 -16 -23 -30 -43 -41 -25
-9 -8 -55 -60 -76 -102 -43 -47 -80 -100 -0 -0 -0 -0 -102 -126 -140 -0 -116 -83 -33 -12 -2 -3 -5 -6 -6 -3 -4 -5 -4 -4 -5 -5 -21 -28 -18 -11 -5 -1 -1 -11 -26 -22 -31 -40 -46 -59 -73
-6 -47 -59 -74 -77 -78 -30 -36 -101 -20 -46 -0 -0 -0 -108 -119 -93 -124 -101 -115 -88 -42 -3 -3 -6 -3 -4 -8 -10 -12 -23 -11 -9 -35 -51 -54 -60 -44 -44 -52 -48 -55 -44 -50 -45 -58 -68 -71 -62
-0 -0 -0 -3 -34 -64 -39 -44 -10 -22 -62 -0 -26 -17 -134 -104 -90 -103 -131 -134 -105 -56 -16 -16 -10 -11 -8 -28 -29 -41 -37 -29 -34 -58 -70 -79 -90 -71 -72 -79 -87 -69 -72 -66 -63 -79 -89 -90 -79
-0 -0 -78 -43 -55 -45 -29 -44 -67 -0 -95 -85 -108 -119 -103 -94 -82 -100 -113 -130 -114 -79 -53 -46 -45 -50 -45 -70 -59 -61 -43 -40 -53 -61 -87 -99 -90 -79 -87 -85 -79 -90 -100 -88 -81 -96 -95 -157 -173
-0 -11 -30 -44 -106 -10 -19 -32 -70 -75 -88 -80 -92 -102 -97 -99 -101 -89 -106 -122 -91 -68 -61 -72 -64 -90 -97 -78 -51 -52 -46 -44 -59 -64 -72 -93 -92 -90 -80 -69 -81 -84 -96 -108 -95 -72 -57 -110 -149
-95 -101 -17 -17 -31 -35 -36 -9 -93 -46 -65 -40 -72 -99 -83 -77 -91 -88 -112 -114 -90 -70 -62 -73 -66 -126 -99 -78 -66 -69 -56 -62 -57 -61 -72 -99 -85 -75 -77 -64 -68 -73 -88 -82 -74 -91 -71 -67 -128
-87 -90 -55 -25 -44 -50 -82 -47 -74 -57 -29 -34 -50 -76 -73 -70 -81 -96 -101 -109 -90 -75 -63 -58 -72 -158 -135 -101 -80 -74 -64 -66 -58 -53 -51 -68 -65 -73 -64 -52 -53 -60 -84 -84 -77 -68 -61 -82 -95
-69 -36 -73 -36 -64 -77 -84 -46 -78 -70 -53 -26 -24 -48 -62 -70 -68 -85 -105 -100 -86 -66 -84 -67 -84 -78 -0 -130 -102 -86 -69 -64 -73 -66 -49 -48 -61 -62 -54 -55 -49 -71 -62 -68 -75 -62 -63 -74 -126
-38 -0 -0 -14 -68 -66 -59 -56 -87 -49 -24 -20 -37 -37 -68 -74 -67 -86 -100 -89 -81 -68 -86 -94 -98 -68 -0 -10 -26 -97 -81 -73 -76 -58 -49 -39 -53 -47 -48 -57 -53 -64 -58 -66 -68 -56 -77 -88 -130
-0 -0 -0 -73 -65 -35 -56 -50 -0 -54 -8 -25 -27 -21 -56 -76 -86 -88 -107 -81 -74 -76 -77 -99 -132 -87 -0 -175 -0 -0 -62 -61 -54 -51 -42 -42 -36 -45 -48 -48 -54 -63 -45 -54 -57 -62 -52 -85 -156
-0 -0 -46 -84 -87 -64 -57 -37 -20 -21 -41 -46 -20 -30 -51 -57 -90 -82 -95 -74 -74 -84 -92 -122 -127 -96 -131 -132 -34 -0 -91 -86 -49 -45 -39 -41 -39 -45 -40 -42 -52 -59 -41 -50 -51 -50 -44 -58 -128
-0 -0 -0 -62 -87 -81 -45 -38 -31 -8 -25 -31 -26 -45 -51 -61 -76 -81 -89 -105 -76 -81 -117 -114 -117 -120 -104 -79 -164 -141 -103 -83 -42 -44 -35 -30 -30 -45 -53 -50 -49 -46 -54 -50 -54 -47 -48 -38 -89
-0 -0 -0 -0 -24 -0 -74 -0 -15 -59 -37 -19 -24 -34 -54 -81 -78 -95 -95 -108 -117 -94 -111 -105 -110 -120 -108 -98 -75 -65 -60 -50 -44 -46 -40 -33 -31 -41 -51 -45 -50 -38 -51 -57 -48 -60 -59 -67 -57
-0 -0 -0 -0 -0 -69 -0 -0 -0 -99 -56 -62 -56 -51 -50 -43 -84 -72 -102 -110 -138 -117 -121 -118 -104 -111 -87 -67 -63 -41 -40 -54 -64 -58 -39 -32 -35 -41 -40 -37 -49 -42 -50 -62 -48 -61 -55 -73 -75
-118 -123 -147 -197 -55 -0 -0 -0 -0 -81 -133 -93 -54 -64 -75 -51 -87 -96 -104 -125 -126 -131 -110 -115 -98 -91 -99 -70 -66 -71 -57 -57 -46 -53 -43 -31 -36 -42 -42 -41 -52 -41 -47 -46 -46 -58 -69 -74 -83
-75 -36 -11 -19 -12 -31 -0 -0 -0 -40 -221 -132 -99 -0 -88 -56 -106 -104 -71 -98 -113 -119 -112 -111 -102 -91 -106 -77 -65 -62 -71 -75 -43 -42 -44 -45 -33 -34 -37 -35 -45 -40 -37 -50 -45 -55 -58 -66 -72
-0 -0 -0 -0 -0 -18 -146 -0 -0 -67 -272 -156 -118 -144 -98 -53 -84 -107 -103 -94 -98 -111 -117 -100 -102 -82 -80 -74 -45 -56 -83 -84 -68 -55 -44 -37 -37 -29 -29 -40 -40 -38 -50 -46 -46 -46 -61 -66 -67
-0 -0 -0 -0 -0 -0 -89 -151 -181 -184 -199 -115 -113 -176 -136 -68 -45 -65 -95 -101 -111 -98 -113 -111 -128 -109 -65 -49 -41 -54 -97 -106 -82 -72 -68 -46 -47 -39 -36 -35 -34 -37 -41 -48 -53 -45 -42 -59 -66
-0 -0 -0 -0 -0 -0 -23 -112 -134 -239 -193 -121 -96 -107 -92 -95 -37 -30 -104 -90 -99 -117 -119 -91 -96 -85 -65 -47 -46 -51 -71 -140 -132 -117 -79 -52 -51 -58 -51 -48 -40 -36 -39 -48 -52 -45 -50 -49 -57
-0 -0 -0 -0 -0 -0 -0 -0 -251 -241 -230 -199 -123 -127 -85 -81 -111 -85 -106 -121 -113 -153 -145 -88 -74 -86 -74 -47 -43 -47 -55 -69 -97 -129 -157 -102 -68 -65 -69 -69 -58 -42 -50 -48 -45 -38 -32 -35 -43
-0 -0 -0 -0 -0 -0 -0 -0 -358 -214 -294 -219 -18 -149 -68 -110 -85 -63 -82 -64 -171 -122 -121 -91 -118 -111 -90 -66 -55 -69 -61 -66 -49 -54 -96 -139 -87 -82 -73 -91 -80 -55 -37 -37 -37 -27 -25 -27 -28
Wind_Speed
16 16 14 15 16 18 21 22 23 26 29 27 32 23 23 20 20 22 28 27 28 27 28 26 26 25 25 27 27 26 25 18 21 21 23 24 24 25 25 24 21 7 4 3 6 5 3 3 3
16 14 16 17 19 25 21 26 30 30 30 34 25 26 21 22 17 29 29 29 27 27 26 26 25 25 25 26 24 24 23 19 16 20 20 21 25 21 20 19 11 5 10 6 5 3 3 3 5
15 15 16 17 21 25 26 28 29 27 30 28 23 17 21 19 27 31 29 29 27 26 26 26 25 25 25 26 24 23 23 20 15 17 18 17 18 16 18 21 14 11 10 11 8 7 12 19 16
16 12 14 15 25 19 26 27 27 28 28 21 25 21 16 24 31 29 32 29 27 27 27 26 25 25 25 26 25 23 22 22 18 17 19 19 22 18 16 13 12 15 17 17 14 13 15 21 23
17 20 21 18 12 20 8 21 25 27 26 24 21 20 26 21 26 33 31 30 27 27 27 26 26 26 26 27 26 25 24 21 22 19 20 19 18 15 15 15 14 18 21 20 18 16 17 17 22
13 21 20 26 8 6 9 10 23 25 22 23 23 28 23 29 30 32 31 29 27 27 27 26 26 26 27 26 25 25 25 25 23 22 23 22 16 5 9 13 17 19 19 19 18 16 15 22 22
10 3 19 21 13 18 23 10 14 24 23 23 27 28 27 32 29 32 31 28 27 27 27 27 26 27 28 27 27 24 26 25 27 25 22 19 16 13 15 16 18 19 21 21 19 16 12 21 23
14 15 16 14 3 14 23 18 6 21 19 19 29 26 30 33 28 31 30 28 27 27 26 26 27 26 27 27 26 26 27 25 27 25 22 19 19 15 14 16 15 18 20 19 18 16 16 13 16
13 8 16 11 8 25 25 23 13 4 27 19 20 28 31 31 28 31 30 28 27 26 26 26 26 26 26 27 26 26 25 23 24 25 19 16 14 13 12 13 17 16 19 20 20 18 17 15 13
12 16 24 23 22 22 23 22 25 27 25 21 16 20 29 31 30 30 29 28 28 27 27 26 26 26 26 25 24 23 23 19 21 21 20 18 16 15 15 13 12 14 17 17 19 17 16 16 15
10 10 14 20 18 23 20 19 19 19 24 25 28 29 31 32 31 28 29 28 27 27 27 27 27 26 25 26 24 23 23 22 23 22 22 20 20 18 16 17 12 12 11 13 14 14 15 15 15
12 15 9 11 16 21 17 16 19 19 18 27 30 29 31 31 30 29 29 28 27 26 27 27 27 27 26 27 24 23 24 23 25 24 23 23 21 17 15 13 12 12 12 13 13 13 13 14 17
18 16 9 13 12 21 16 12 9 4 20 25 26 26 29 29 29 28 28 28 27 26 27 28 28 27 27 27 25 24 24 24 25 24 23 23 22 19 16 14 12 13 12 14 13 12 12 12 14
15 14 11 12 15 11 13 6 8 25 27 24 26 27 27 28 29 29 29 28 27 27 27 27 28 27 27 27 25 24 24 25 25 25 24 24 22 21 19 16 14 15 13 14 11 10 10 11 13
11 11 9 8 7 9 11 9 20 26 31 27 26 26 26 27 27 28 29 27 28 28 29 27 29 27 27 27 24 26 24 23 25 26 26 25 22 21 19 17 16 16 13 13 12 12 12 14 16
14 12 11 12 9 8 10 6 22 26 23 24 26 25 26 26 26 29 28 28 27 28 29 27 27 27 26 26 25 25 23 24 24 24 25 24 21 21 20 18 18 17 16 13 12 13 15 16 17
15 17 15 14 15 8 14 9 4 15 22 18 14 23 28 25 18 28 28 28 26 27 28 28 28 27 27 27 25 24 23 24 23 23 25 23 22 21 20 19 19 17 15 13 12 13 14 15 16
17 18 18 17 14 12 15 12 3 11 19 19 17 26 21 19 23 27 28 28 27 26 28 28 27 27 25 27 25 24 24 24 22 23 24 24 24 22 20 19 19 16 14 14 13 13 13 15 14
15 16 20 17 14 15 17 12 1 3 7 7 18 26 19 25 16 10 28 29 29 27 28 28 27 26 26 27 27 26 26 25 24 24 25 24 24 23 22 21 19 17 16 15 12 13 13 14 13
18 18 17 14 15 17 16 13 13 5 10 14 15 9 22 33 7 10 17 30 30 29 29 29 29 25 26 27 26 25 26 24 23 24 25 25 24 24 24 22 21 19 18 16 13 12 15 14 13
22 20 17 17 13 13 14 20 17 18 10 13 11 3 24 10 11 10 14 28 32 31 29 30 29 26 27 27 22 19 19 20 22 24 25 25 25 25 25 24 22 21 20 19 16 14 12 13 14
28 22 19 15 19 24 19 23 21 10 15 10 16 16 14 18 36 13 9 21 30 32 31 31 30 29 28 27 27 26 25 24 24 25 24 25 25 25 25 24 23 22 22 20 18 15 13 12 12
24 19 19 18 20 22 24 24 23 15 19 9 15 14 7 19 34 26 10 32 31 32 33 31 31 31 29 29 28 27 26 22 20 23 25 25 24 24 25 25 25 22 21 20 19 16 13 12 11
12 14 14 17 21 30 27 27 24 20 29 6 11 16 15 21 26 30 27 26 29 30 33 33 31 32 30 30 29 27 26 24 22 21 25 25 24 23 21 18 18 16 18 21 20 17 14 14 13
18 20 26 27 27 29 25 28 29 23 19 6 11 16 15 16 22 26 24 28 31 32 34 34 32 29 32 23 27 27 26 24 26 26 24 25 24 23 24 23 21 19 19 20 20 19 16 16 15
19 21 26 31 29 27 21 31 26 22 21 4 7 15 11 10 20 22 26 30 30 29 32 34 35 34 20 24 26 26 26 25 25 25 26 26 26 26 24 25 24 23 23 23 22 21 19 17 17
20 24 22 21 23 26 25 24 22 18 17 9 6 11 11 10 15 20 27 28 28 28 30 31 31 32 29 19 21 21 23 24 27 25 27 27 25 24 24 25 24 23 23 24 24 23 21 19 19
19 17 24 27 32 30 27 26 25 20 17 11 7 10 10 6 23 23 28 29 27 30 28 26 27 34 27 24 22 21 21 22 21 25 28 27 25 23 23 25 25 24 23 23 23 23 23 23 21
20 22 20 20 25 32 31 29 21 20 16 12 11 7 9 15 28 28 29 31 28 29 29 25 23 25 22 22 23 21 22 22 21 21 25 26 23 24 24 23 23 25 24 21 21 22 22 24 23
19 20 21 26 30 27 29 28 22 16 12 10 9 3 5 8 9 16 25 28 29 29 27 25 25 21 21 18 20 21 22 24 25 23 20 23 26 26 25 20 22 24 24 21 22 22 21 23 24
Wind_Direction
70 73 112 203 189 177 156 141 148 96 117 127 125 139 121 138 128 114 133 127 111 111 120 117 108 104 103 117 127 136 143 166 151 149 146 141 140 137 135 138 145 158 143 116 153 145 118 91 127
67 123 233 201 173 113 146 136 118 120 117 114 133 119 130 130 149 119 131 120 110 109 113 112 108 103 105 121 149 152 157 172 171 156 151 151 139 146 149 153 164 152 161 154 147 100 74 56 170
21 345 208 198 161 114 116 133 110 107 115 117 128 168 138 134 116 125 130 114 106 105 111 112 110 109 114 129 152 157 162 175 182 171 163 162 158 156 151 147 161 167 164 164 168 171 166 154 158
36 342 238 205 149 182 141 113 104 111 123 159 102 136 160 114 132 139 121 114 104 106 113 115 117 121 122 129 155 167 172 171 183 178 168 163 153 156 158 164 167 164 160 156 159 164 167 152 141
78 175 184 200 215 181 84 93 107 110 134 132 151 145 131 159 105 118 119 118 107 109 120 125 125 124 133 137 151 162 168 179 174 178 170 168 169 170 165 161 167 163 156 156 156 160 154 155 140
225 193 184 167 224 60 212 65 104 122 110 118 110 120 154 123 110 128 122 117 114 113 122 125 127 129 134 144 155 158 159 164 171 171 163 159 180 218 187 171 163 161 163 160 156 162 161 141 140
322 211 196 187 73 84 173 237 209 111 109 124 130 129 151 140 117 128 123 113 117 126 125 127 131 133 133 137 144 158 153 161 152 163 170 176 184 186 176 168 161 162 157 152 153 157 165 140 134
357 238 222 222 56 95 179 199 7 179 176 155 130 136 136 149 118 123 123 116 120 135 135 136 133 139 134 140 140 140 138 157 147 168 175 180 173 182 182 171 172 166 161 161 162 161 161 166 157
6 260 205 239 233 171 142 111 124 321 114 179 179 128 125 122 114 124 125 126 127 142 148 146 141 143 140 137 136 125 115 170 169 166 189 194 196 192 191 183 169 172 164 158 154 158 162 161 164
352 211 134 122 122 125 122 111 131 123 143 86 73 90 112 120 126 128 130 127 136 141 148 148 145 146 146 145 149 148 149 181 182 182 185 189 191 187 182 187 186 177 170 169 160 165 168 169 169
327 275 82 140 110 134 113 104 100 102 148 118 113 115 122 126 133 129 136 135 135 137 143 149 145 149 152 138 152 153 154 165 173 180 182 184 178 179 182 173 185 188 196 189 187 190 185 184 179
287 267 347 48 106 139 120 103 107 211 178 123 117 116 122 128 135 135 137 138 137 133 145 147 156 146 152 145 154 155 151 159 164 172 179 176 179 186 189 197 199 194 196 191 189 199 197 191 184
264 278 7 340 113 142 108 104 102 114 162 120 117 119 122 126 133 138 141 139 139 136 141 149 147 146 145 146 151 159 156 158 160 171 177 175 177 186 195 199 204 199 196 189 190 195 195 194 185
284 292 326 6 80 91 111 77 100 144 139 125 127 128 128 131 133 139 142 135 139 141 141 140 147 143 145 146 156 159 159 156 158 164 175 175 181 181 187 201 208 198 205 196 208 213 211 200 185
292 303 309 342 3 0 75 84 140 154 152 135 136 135 135 138 137 144 143 138 141 148 148 137 149 146 149 150 168 162 164 162 155 155 159 169 183 184 189 195 203 196 206 207 214 208 203 189 183
274 281 277 284 309 68 317 18 151 157 142 138 140 141 142 143 141 154 152 146 142 146 149 144 145 151 146 160 171 167 172 164 165 161 162 168 187 192 192 195 197 199 201 215 218 207 197 189 181
268 261 276 275 272 306 283 325 67 126 139 139 131 144 150 145 131 153 155 151 144 147 152 150 160 156 157 164 177 182 180 169 162 165 159 175 183 190 194 191 191 197 208 218 221 207 205 197 189
258 262 271 271 277 288 282 294 97 120 141 140 139 155 144 142 149 153 156 158 154 152 157 156 155 158 177 160 189 192 182 181 177 164 153 168 174 188 193 197 198 206 214 214 215 212 209 205 213
267 269 268 273 279 276 272 288 157 172 146 151 145 163 151 157 143 138 156 162 165 159 160 161 153 153 149 159 172 179 174 180 183 172 162 167 178 187 185 195 202 206 211 211 227 220 222 220 231
260 267 271 280 277 274 272 289 268 272 164 160 245 258 161 181 154 144 142 165 172 165 168 169 158 143 151 162 178 188 175 189 192 195 182 181 183 185 184 193 195 204 209 215 228 233 214 225 235
255 261 269 268 280 289 274 266 280 265 268 170 243 205 241 165 160 159 150 160 180 181 169 172 162 154 156 166 203 214 217 215 210 197 196 193 188 189 192 191 199 205 210 213 224 228 236 232 226
250 261 268 271 266 255 269 257 267 273 263 187 182 170 264 261 217 236 178 153 168 182 182 178 177 167 160 174 161 172 191 187 188 189 201 199 194 194 194 190 193 201 204 219 224 227 238 239 240
254 265 263 267 268 261 258 259 260 274 261 239 185 188 198 260 224 171 206 172 175 177 182 178 182 182 172 186 173 177 197 214 221 209 194 201 208 211 207 198 198 210 210 222 229 240 247 252 261
253 261 271 271 265 253 254 256 269 270 255 228 194 183 170 253 242 235 238 237 229 222 206 195 179 187 180 187 195 193 193 213 218 219 199 203 211 222 230 243 243 256 241 228 231 242 259 256 255
252 250 252 255 255 256 265 258 264 276 289 231 184 179 179 250 250 241 243 237 228 225 214 205 179 175 202 236 225 218 216 215 198 201 207 201 216 219 215 224 232 249 247 243 239 244 260 264 263
248 249 249 250 254 261 269 256 267 284 277 290 182 175 199 233 251 243 241 237 237 238 227 219 205 194 246 240 234 232 224 222 220 216 204 199 203 202 220 213 222 231 229 234 240 246 258 272 275
253 249 255 264 266 260 263 271 278 282 276 272 227 173 198 214 251 250 240 241 242 244 239 233 229 223 235 254 251 252 246 242 228 228 212 209 219 227 223 222 228 234 232 233 235 242 260 271 275
261 255 253 256 250 254 260 264 266 274 263 265 231 215 199 174 246 253 246 243 248 244 245 248 246 225 242 248 252 255 255 249 250 239 222 222 227 239 237 227 227 235 246 248 248 249 254 257 269
261 255 261 261 257 252 255 261 276 270 259 257 252 235 220 247 249 252 254 253 256 250 247 252 254 249 251 253 254 256 254 257 259 262 244 237 244 243 245 249 251 240 249 263 263 263 261 257 268
267 261 260 256 254 260 259 263 280 276 266 260 254 243 274 263 282 270 269 261 251 250 252 251 254 252 254 257 257 260 259 257 254 259 264 253 243 246 249 274 267 262 258 268 264 265 270 267 268